Simultaneous Nadir Overpasses (SNOs) Predictions

Prediction of SNOs between METOP-B and TERRA Satellite Orbit:

Table of predicted SNOs for the next 14.0 days since TLE Epoch: 11/27/2021
Index Date (METOP-B) Time (METOP-B) Lat,Lon (METOP-B) SZA (METOP-B ) Date (TERRA) Time (TERRA) Lat,Lon (TERRA) SZA (TERRA ) Distance(km) Time Diff (sec)
1 11/29/2021 12:27:11 81.25, 37.25 105.43 11/29/2021 12:27:29 81.25, 37.27 105.44 0.42 18
2 11/29/2021 13:17:50 -81.27,-154.74 74.48 11/29/2021 13:16:55 -81.27,-154.83 74.52 1.53 55
3 12/02/2021 08:01:33 81.25, 103.63 105.84 12/02/2021 08:01:40 81.25, 103.72 105.85 1.52 7
4 12/02/2021 08:52:12 -81.27, -88.35 74.08 12/02/2021 08:51:06 -81.27, -88.35 74.11 0.43 66
5 12/05/2021 02:45:15 -81.24, 2.37 73.86 12/05/2021 02:46:25 -81.25, 2.44 73.82 1.29 70
6 12/05/2021 03:35:55 81.25, 170.00 106.18 12/05/2021 03:35:51 81.25, 170.13 106.19 2.12 4
7 12/07/2021 22:19:36 -81.24, 68.72 73.58 12/07/2021 22:20:35 -81.24, 68.82 73.54 1.72 59
8 12/07/2021 23:10:16 81.25,-123.65 106.47 12/07/2021 23:10:01 81.25,-123.52 106.47 2.28 15
9 12/10/2021 17:53:58 -81.24, 135.05 73.35 12/10/2021 17:54:46 -81.24, 135.15 73.33 1.71 48



Historial Predications of SNOs between METOP-B and TERRA
